Weather in Onesti

Romania     46°15′21″N   26°46′32″E
temp.,
°C
wind,
m/s
gust,
m/s
humid.,
%
clouds,
%
prec.,
mm/h
press.,
hPa
HPBL,
m
8 may, sat
sat800:00+11w22799 0.0 100719
03:00+12wnw3382100 0.3 100883
06:00+9nnw2593100 1.3 1012173
09:00+6nne598997 1.5 1017559
12:00+10nne4565100 0.0 1018880
15:00+14ne445337 0.0 10171357
18:00+12nne555410 0.4 10191103
21:00+9n5666100 0.4 1023855
9 may, sun
sun900:00+8w2270100 0.0 102449
03:00+4wsw22845 0.0 102517
06:00+3wsw22870 0.0 102623
09:00+10wsw12605 0.0 1027479
12:00+14e334019 0.0 10262002
15:00+16e44385 0.0 10251815
18:00+15se67515 0.0 1024983
21:00+9se22695 0.0 102621
10 may, mon
mon1000:00+7ssw12805 0.0 102713
03:00+6ssw12825 0.0 102611
06:00+5ssw22805 0.0 102611
09:00+12ese23605 0.0 1026455
12:00+17se56445 0.0 10241316
15:00+18se76445 0.0 10231108
18:00+17se68545 0.0 1022835
21:00+10se23701 0.0 102338
11 may, tue
tue1100:00+7sse22825 0.0 102432
03:00+6s22875 0.0 102415
06:00+5sw11860 0.0 102411
09:00+12ese24570 0.0 1023485
12:00+17ese55410 0.0 10221185
15:00+18ese55410 0.0 10201330
18:00+17ese44500 0.0 10191123
21:00+11s22650 0.0 101811
12 may, wed
wed1200:00+8w11720 0.0 101910
03:00+7w22780 0.0 101712
06:00+6w22790 0.0 101611
09:00+13ene22621 0.0 1014375
12:00+17ese345762 0.0 10121428
15:00+16ese677396 0.2 1010866
18:00+14ese588379 0.5 1010712
21:00+12se3891100 0.6 1009513